HAWK-2A

Last updated on Tue Sep 22 2026 00:03:52 GMT+0000 (Coordinated Universal Time)

1 47505U 21006CW 26264.35911879 .00004356 00000+0 12760-3 0 9999 2 47505 97.2237 307.5086 0005375 205.0917 155.0066 15.35728465314250
UTC large
Height (km)
Speed (km/s)
/
Latitude / Longitude
Inclination (degrees)
Orbital Period (minutes)
Azimuth
Elevation
Range (km)
Doppler Factor

Next 0 passes for location: London (51.5072 / 0.1276)

No passes found over London.
HAWK-2A